Latest Weather Observations for Mildura

IDN60801

Issued at 10:35 pm EST Tuesday 29 July 2014 (issued every 30 minutes, with the page automatically refreshed every 10 minutes)

About weather observations | Map of weather stations | Latest weather observations for NSW | Other Formats
Station Details ID: 076031 Name: MILDURA AIRPORT Lat: -34.24 Lon: 142.09 Height: 50.0 m
Data from the previous 72 hours. | See also: Recent months at Mildura
Date/Time
EST
Temp
°C
App
Temp
°C
Dew
Point
Rel
Hum
%
Delta-T
°C
Wind Press
QNH
hPa
Press
MSL
hPa
Rain
since 9 am
mm
Dir
 
Spd
km/h
Gust
km/h
Spd
kts
Gust
kts
29/10:30pm 15.3 12.9 8.6 64 3.4 NW 11 17 6 9 1018.9 - 0.0
29/10:00pm 16.2 13.8 8.6 60 3.9 NW 11 15 6 8 1018.9 1018.9 0.0
29/09:30pm 16.0 14.0 8.5 61 3.8 NW 9 11 5 6 1018.8 - 0.0
29/09:00pm 16.2 14.2 8.6 60 3.9 NW 9 13 5 7 1018.7 1018.7 0.0
29/08:30pm 16.6 14.1 8.4 58 4.2 WNW 11 15 6 8 1018.5 - 0.0
29/08:00pm 16.6 14.1 8.4 58 4.2 WNW 11 17 6 9 1018.2 1018.2 0.0
29/07:30pm 17.1 14.2 8.3 56 4.5 WNW 13 17 7 9 1018.1 - 0.0
29/07:00pm 17.0 14.5 8.4 57 4.4 WNW 11 15 6 8 1018.0 1018.0 0.0
29/06:30pm 17.3 13.7 8.3 55 4.6 W 17 24 9 13 1017.8 - 0.0
29/06:00pm 17.7 13.6 7.9 52 5.0 W 19 32 10 17 1017.5 1017.5 0.0
29/05:30pm 18.3 12.8 7.4 49 5.5 W 26 35 14 19 1017.2 - 0.0
29/05:00pm 18.8 14.5 6.8 45 6.0 W 19 30 10 16 1016.7 1016.8 0.0
29/04:30pm 19.2 13.4 6.4 43 6.4 W 26 37 14 20 1016.4 - 0.0
29/04:00pm 19.4 13.6 6.1 42 6.6 W 26 43 14 23 1016.2 1016.3 0.0
29/03:30pm 20.8 13.7 5.5 36 7.6 WNW 32 46 17 25 1016.0 - 0.0
29/03:00pm 20.5 13.8 5.8 38 7.3 WNW 30 44 16 24 1016.0 1016.1 0.0
29/02:30pm 20.2 13.5 5.7 38 7.2 W 30 41 16 22 1015.9 - 0.0
29/02:00pm 19.7 13.5 6.0 40 6.8 W 28 43 15 23 1016.1 1016.2 0.0
29/01:30pm 19.3 12.2 5.4 40 6.8 WNW 32 44 17 24 1016.3 - 0.0
29/01:00pm 19.3 12.9 5.1 39 6.9 WNW 28 43 15 23 1016.9 1016.9 0.0
29/12:30pm 18.4 11.9 4.9 41 6.5 WNW 28 39 15 21 1017.3 - 0.0
29/12:00pm 18.1 11.9 4.2 39 6.6 W 26 43 14 23 1017.7 1017.7 0.0
29/11:36am 17.6 11.0 4.3 41 6.3 WNW 28 46 15 25 1017.8 - 0.0
29/11:30am 18.0 11.7 4.0 39 6.6 WNW 26 39 14 21 1017.8 - 0.0
29/10:30am 16.5 10.5 3.2 41 6.1 NW 24 35 13 19 1018.0 - 0.0
29/10:00am 15.9 10.2 2.9 41 5.9 NW 22 37 12 20 1018.0 1018.0 0.0
29/09:30am 14.1 9.4 5.1 54 4.2 NW 19 26 10 14 1017.9 - 0.0
29/09:00am 12.1 8.2 5.2 62 3.2 NNW 15 20 8 11 1017.8 1017.8 0.0
29/08:30am 10.3 5.9 4.7 68 2.5 NNW 17 24 9 13 1017.6 - 0.0
29/08:00am 9.3 5.5 4.1 70 2.3 NNW 13 19 7 10 1017.5 1017.5 0.0
29/07:30am 9.4 5.6 3.7 67 2.5 NNW 13 19 7 10 1017.2 - 0.0
29/07:00am 9.2 5.4 3.7 68 2.4 NNW 13 19 7 10 1016.7 1016.8 0.0
29/06:30am 8.8 5.3 3.7 70 2.2 NNW 11 17 6 9 1016.9 - 0.0
29/06:00am 8.9 5.1 4.1 72 2.1 NNW 13 20 7 11 1016.4 1016.5 0.0
29/05:30am 8.5 5.1 4.2 74 1.9 NNW 11 15 6 8 1016.3 - 0.0
29/05:00am 7.5 4.5 4.3 80 1.4 NW 9 11 5 6 1016.5 1016.6 0.0
29/04:30am 8.2 5.2 4.3 76 1.7 NW 9 13 5 7 1016.4 - 0.0
29/04:00am 8.9 6.0 4.4 73 2.0 NNW 9 13 5 7 1016.5 1016.6 0.0
29/03:30am 10.2 6.9 4.6 68 2.5 N 11 17 6 9 1016.3 - 0.0
29/03:00am 10.1 6.8 4.8 69 2.4 NNW 11 13 6 7 1016.5 1016.6 0.0
29/02:30am 10.5 7.2 4.7 67 2.6 NNW 11 15 6 8 1017.0 - 0.0
29/02:00am 9.9 6.5 4.0 67 2.6 WNW 11 13 6 7 1017.2 1017.2 0.0
29/01:30am 9.8 6.8 3.9 66 2.6 NW 9 13 5 7 1017.4 - 0.0
29/01:00am 10.6 7.2 3.8 63 3.0 NNW 11 15 6 8 1017.5 1017.5 0.0
29/12:30am 10.4 7.3 3.8 63 2.9 NNW 9 11 5 6 1017.5 - 0.0
29/12:00am 9.7 7.1 4.3 69 2.4 WNW 7 11 4 6 1017.6 1017.6 0.0
 
Date/Time
EST
Temp
°C
App
Temp
°C
Dew
Point
Rel
Hum
%
Delta-T
°C
Wind Press
QNH
hPa
Press
MSL
hPa
Rain
since 9 am
mm
Dir
 
Spd
km/h
Gust
km/h
Spd
kts
Gust
kts
28/11:30pm 9.4 6.8 4.4 71 2.2 WNW 7 9 4 5 1017.6 - 0.0
28/11:00pm 10.1 7.6 4.5 68 2.5 NW 7 9 4 5 1017.4 1017.4 0.0
28/10:30pm 10.5 8.2 5.0 69 2.5 NNW 6 7 3 4 1017.5 - 0.0
28/10:00pm 10.8 8.3 4.8 66 2.7 NNW 7 9 4 5 1017.5 1017.5 0.0
28/09:30pm 10.5 8.2 4.7 67 2.6 NNW 6 7 3 4 1017.6 - 0.0
28/09:00pm 11.2 10.4 6.5 73 2.2 CALM 0 0 0 0 1017.6 1017.6 0.0
28/08:30pm 12.2 10.1 5.8 65 3.0 NNW 6 7 3 4 1017.3 - 0.0
28/08:00pm 13.2 11.1 5.8 61 3.5 NNW 6 7 3 4 1017.3 1017.3 0.0
28/07:30pm 12.8 12.0 6.5 65 3.0 CALM 0 0 0 0 1017.0 - 0.0
28/07:00pm 13.5 12.6 5.9 60 3.6 CALM 0 0 0 0 1016.7 1016.8 0.0
28/06:30pm 13.5 12.7 6.6 63 3.3 CALM 0 0 0 0 1016.6 - 0.0
28/06:00pm 14.2 13.1 7.0 62 3.5 W 2 6 1 3 1016.5 1016.6 0.0
28/05:30pm 14.8 14.3 7.8 63 3.5 CALM 0 0 0 0 1016.3 - 0.0
28/05:00pm 15.5 13.2 4.9 49 5.0 NNW 6 9 3 5 1016.3 1016.4 0.0
28/04:30pm 15.9 12.8 3.8 44 5.6 WSW 9 15 5 8 1016.3 - 0.0
28/04:00pm 17.0 12.9 2.1 36 6.7 W 13 17 7 9 1016.9 1016.9 0.0
28/03:30pm 17.3 13.4 1.3 34 7.1 W 11 17 6 9 1016.9 - 0.0
28/03:00pm 17.7 13.4 1.3 33 7.3 W 13 19 7 10 1017.1 1017.1 0.0
28/02:30pm 18.0 12.9 0.8 31 7.6 W 17 22 9 12 1017.2 - 0.0
28/02:00pm 17.8 12.6 0.4 31 7.6 WNW 17 24 9 13 1017.3 1017.3 0.0
28/01:30pm 18.0 12.5 0.4 30 7.7 NW 19 26 10 14 1017.8 - 0.0
28/01:00pm 17.2 11.3 -0.7 29 7.6 WNW 20 28 11 15 1018.3 1018.3 0.0
28/12:30pm 17.3 11.6 -0.5 30 7.6 WNW 19 30 10 16 1018.7 - 0.0
28/12:00pm 16.7 11.4 -0.5 31 7.3 NW 17 26 9 14 1018.9 1018.9 0.0
28/11:30am 15.8 10.5 -0.3 33 6.8 NW 17 28 9 15 1019.4 - 0.0
28/11:00am 15.3 10.0 -0.8 33 6.7 NW 17 26 9 14 1019.4 1019.4 0.0
28/10:30am 13.8 9.3 -0.1 38 5.8 N 13 20 7 11 1019.7 - 0.0
28/10:00am 13.6 8.7 -0.5 38 5.8 NNW 15 22 8 12 1019.9 1020.0 0.0
28/09:30am 13.0 8.5 -0.4 39 5.5 NNW 13 19 7 10 1020.0 - 0.0
28/09:00am 11.6 7.4 -0.6 43 4.9 N 11 15 6 8 1019.9 1020.0 0.0
28/08:30am 10.7 7.6 1.1 51 4.0 N 7 11 4 6 1019.4 - 0.0
28/08:00am 10.1 6.9 0.8 52 3.8 N 7 9 4 5 1019.4 1019.4 0.0
28/07:30am 10.2 6.9 0.0 49 4.1 N 7 9 4 5 1019.4 - 0.0
28/07:00am 10.4 6.7 -0.3 47 4.3 N 9 13 5 7 1019.2 1019.2 0.0
28/06:30am 10.9 7.1 -0.6 45 4.6 N 9 13 5 7 1019.1 - 0.0
28/06:00am 10.9 7.2 -0.3 46 4.5 N 9 11 5 6 1019.1 1019.1 0.0
28/05:30am 10.9 7.2 -0.3 46 4.5 N 9 13 5 7 1019.0 - 0.0
28/05:00am 11.5 7.4 0.0 45 4.7 NNW 11 15 6 8 1019.2 1019.2 0.0
28/04:30am 11.8 7.6 -0.6 42 5.0 N 11 15 6 8 1019.4 - 0.0
28/04:00am 12.0 7.5 -0.6 41 5.1 NNW 13 17 7 9 1019.4 1019.4 0.0
28/03:30am 12.2 7.7 -0.3 42 5.1 NNW 13 22 7 12 1019.5 - 0.0
28/03:00am 12.5 8.0 -0.2 41 5.2 NNW 13 19 7 10 1019.9 1020.0 0.0
28/02:30am 11.9 8.0 0.9 47 4.6 N 11 17 6 9 1020.2 - 0.0
28/02:00am 11.9 8.0 1.2 48 4.5 N 11 13 6 7 1020.0 1020.1 0.0
28/01:30am 12.4 8.5 1.0 45 4.8 NNW 11 17 6 9 1020.4 - 0.0
28/01:00am 12.1 8.3 1.5 48 4.5 N 11 15 6 8 1020.5 1020.6 0.0
28/12:30am 12.8 8.9 1.3 45 4.9 N 11 15 6 8 1020.9 - 0.0
28/12:00am 13.3 9.4 1.4 44 5.1 NNW 11 17 6 9 1021.0 1021.1 0.0
 
Date/Time
EST
Temp
°C
App
Temp
°C
Dew
Point
Rel
Hum
%
Delta-T
°C
Wind Press
QNH
hPa
Press
MSL
hPa
Rain
since 9 am
mm
Dir
 
Spd
km/h
Gust
km/h
Spd
kts
Gust
kts
27/11:30pm 13.6 9.7 1.2 43 5.3 NNW 11 15 6 8 1021.3 - 0.0
27/11:00pm 13.6 9.8 1.5 43 5.2 N 11 13 6 7 1021.3 1021.4 0.0
27/10:30pm 13.5 10.0 1.4 43 5.2 N 9 15 5 8 1021.5 - 0.0
27/10:00pm 12.5 9.2 2.7 51 4.3 N 9 11 5 6 1021.5 1021.6 0.0
27/09:30pm 14.3 10.4 1.3 41 5.6 N 11 15 6 8 1021.8 - 0.0
27/09:00pm 14.2 10.4 1.5 42 5.5 N 11 15 6 8 1021.6 1021.7 0.0
27/08:30pm 14.2 9.6 1.8 43 5.4 N 15 19 8 10 1021.6 - 0.0
27/08:00pm 12.3 8.8 5.4 63 3.2 NNE 13 13 7 7 1021.6 1021.7 0.0
27/07:30pm 13.3 9.9 4.0 53 4.2 N 11 13 6 7 1022.1 - 0.0
27/07:00pm 14.1 10.9 3.2 48 4.9 NNE 9 11 5 6 1021.9 1022.0 0.0
27/06:30pm 13.9 10.9 4.0 51 4.5 N 9 11 5 6 1021.8 - 0.0
27/06:00pm 16.0 12.3 2.4 40 6.1 N 11 13 6 7 1021.5 1021.6 0.0
27/05:30pm 18.1 14.7 1.6 33 7.4 NNW 9 15 5 8 1022.0 - 0.0
27/05:00pm 19.0 14.3 0.8 29 8.1 N 15 22 8 12 1021.4 1021.5 0.0
27/04:30pm 19.2 14.4 0.4 28 8.3 N 15 20 8 11 1021.8 - 0.0
27/04:00pm 18.9 13.3 0.2 28 8.2 N 19 26 10 14 1021.7 1021.8 0.0
27/03:30pm 19.1 13.6 0.9 29 8.1 N 19 26 10 14 1021.8 - 0.0
27/03:00pm 19.6 14.8 0.4 27 8.5 NNW 15 26 8 14 1022.3 1022.4 0.0
27/02:30pm 19.4 14.9 2.2 32 7.9 N 15 24 8 13 1022.6 - 0.0
27/02:00pm 18.5 13.2 1.9 33 7.5 NNW 19 26 10 14 1023.3 1023.4 0.0
27/01:30pm 18.7 13.2 1.6 32 7.7 NNW 20 32 11 17 1023.7 - 0.0
27/01:00pm 18.2 13.0 2.7 35 7.1 NNW 19 28 10 15 1024.3 1024.4 0.0
27/12:30pm 17.9 12.6 3.2 37 6.8 NNW 20 28 11 15 1025.0 - 0.0
27/12:00pm 16.8 12.3 4.2 43 5.9 NNW 17 26 9 14 1025.5 1025.6 0.0
27/11:30am 16.5 11.6 5.1 47 5.4 NNW 20 30 11 16 1026.1 - 0.0
27/11:00am 15.0 10.5 6.0 55 4.3 N 19 24 10 13 1026.4 1026.5 0.0
27/10:30am 12.9 8.9 6.6 65 3.0 N 17 22 9 12 1026.7 - 0.0
27/10:00am 10.0 7.3 7.5 84 1.2 NNE 11 15 6 8 1027.1 1027.2 0.0
27/09:30am 8.8 6.0 7.1 89 0.8 N 11 13 6 7 1027.3 - 0.0
27/09:00am 7.7 5.6 6.6 93 0.5 N 7 11 4 6 1027.3 1027.4 0.0
27/08:30am 6.3 4.2 5.6 95 0.3 N 6 9 3 5 1027.3 - 0.0
27/08:00am 4.9 2.6 4.9 100 0.0 NW 6 7 3 4 1027.1 1027.2 0.0
27/07:30am 3.6 0.8 3.1 97 0.2 NW 7 9 4 5 1026.8 - 0.0
27/07:00am 2.4 -0.5 2.4 100 0.0 WNW 7 9 4 5 1026.6 1026.7 0.0
27/06:30am 2.9 0.2 2.9 100 0.0 N 6 6 3 3 1026.2 - 0.0
27/06:00am 4.0 1.5 3.5 97 0.2 NNE 6 7 3 4 1026.0 1026.1 0.0
27/05:30am 3.6 1.0 3.4 99 0.1 NNE 6 7 3 4 1026.0 - 0.0
27/05:00am 4.1 1.6 3.6 97 0.2 NNE 6 7 3 4 1026.1 1026.2 0.0
27/04:51am 4.2 1.7 3.7 97 0.2 NNE 6 7 3 4 1026.2 - 0.0
27/04:30am 4.9 2.3 4.4 97 0.2 NNE 7 7 4 4 1026.1 - 0.0
27/04:18am 5.2 2.8 4.5 95 0.3 NNE 6 7 3 4 1026.2 - 0.0
27/04:00am 4.5 2.0 4.0 97 0.2 NE 6 7 3 4 1026.1 1026.2 0.0
27/03:30am 4.5 2.0 3.8 95 0.3 NE 6 7 3 4 1026.2 - 0.0
27/03:00am 4.8 2.4 4.3 97 0.2 NNE 6 7 3 4 1026.4 1026.5 0.0
27/02:30am 4.8 2.5 4.8 100 0.0 NNE 6 7 3 4 1026.5 - 0.0
27/02:00am 4.9 3.3 4.7 99 0.1 NNE 2 7 1 4 1026.6 1026.7 0.0
27/01:38am 5.6 3.1 4.9 95 0.3 NNE 7 7 4 4 1026.7 - 0.0
27/01:30am 5.5 3.0 5.0 97 0.2 NNE 7 9 4 5 1026.7 - 0.0
27/01:00am 5.3 2.8 4.6 95 0.3 ENE 7 9 4 5 1026.8 1026.9 0.0
27/12:30am 4.8 2.2 4.3 97 0.2 E 7 9 4 5 1026.8 - 0.0
27/12:13am 5.0 3.7 4.3 95 0.3 CALM 0 0 0 0 1027.1 - 0.0
27/12:00am 5.1 4.0 4.9 99 0.1 CALM 0 0 0 0 1027.3 1027.4 0.0
 
Date/Time
EST
Temp
°C
App
Temp
°C
Dew
Point
Rel
Hum
%
Delta-T
°C
Wind Press
QNH
hPa
Press
MSL
hPa
Rain
since 9 am
mm
Dir
 
Spd
km/h
Gust
km/h
Spd
kts
Gust
kts
26/11:51pm 5.3 4.1 4.6 95 0.3 CALM 0 0 0 0 1027.3 - 0.0
26/11:37pm 5.7 4.7 5.5 99 0.1 CALM 0 0 0 0 1027.5 - 0.0
26/11:30pm 5.8 4.7 5.1 95 0.3 CALM 0 0 0 0 1027.5 - 0.0
26/11:00pm 6.4 5.4 5.5 94 0.4 CALM 0 0 0 0 1027.6 1027.7 0.0

Other Formats:

Comma delimited format used in spreadsheet applications
http://www.bom.gov.au/fwo/IDN60801/IDN60801.94693.axf

JavaScript Object Notation format (JSON) in row-major order
http://www.bom.gov.au/fwo/IDN60801/IDN60801.94693.json